TimeMDT,TemperatureF,Dew PointF,Humidity,Sea Level PressureIn,VisibilityMPH,Wind Direction,Wind SpeedMPH,Gust SpeedMPH,PrecipitationIn,Events,Conditions,WindDirDegrees,DateUTC
12:15 AM,62.6,48.2,59,30.31,10.0,ENE,6.9,-,N/A,,Unknown,70,2013-08-21 06:15:00
12:35 AM,62.6,48.2,59,30.31,10.0,East,3.5,-,N/A,,Unknown,80,2013-08-21 06:35:00
12:55 AM,60.8,48.2,63,30.31,10.0,NE,3.5,-,N/A,,Unknown,50,2013-08-21 06:55:00
1:15 AM,60.8,46.4,59,30.31,10.0,NW,4.6,-,N/A,,Unknown,320,2013-08-21 07:15:00
1:35 AM,59.0,44.6,59,30.31,10.0,Calm,Calm,-,N/A,,Unknown,0,2013-08-21 07:35:00
1:55 AM,57.2,46.4,67,30.31,10.0,NNE,5.8,-,N/A,,Unknown,30,2013-08-21 07:55:00
2:15 AM,59.0,48.2,67,30.30,10.0,ENE,5.8,-,N/A,,Unknown,60,2013-08-21 08:15:00
2:35 AM,60.8,48.2,63,30.30,10.0,ENE,4.6,-,N/A,,Unknown,60,2013-08-21 08:35:00
2:55 AM,59.0,46.4,63,30.30,10.0,NE,3.5,-,N/A,,Unknown,50,2013-08-21 08:55:00
3:15 AM,57.2,46.4,67,30.30,10.0,NE,4.6,-,N/A,,Unknown,50,2013-08-21 09:15:00
3:35 AM,57.2,46.4,67,30.31,10.0,NNW,5.8,-,N/A,,Unknown,340,2013-08-21 09:35:00
3:55 AM,55.4,44.6,67,30.31,10.0,Calm,Calm,-,N/A,,Unknown,0,2013-08-21 09:55:00
4:15 AM,55.4,46.4,72,30.32,10.0,SSW,3.5,-,N/A,,Unknown,210,2013-08-21 10:15:00
4:35 AM,53.6,44.6,72,30.32,10.0,Calm,Calm,-,N/A,,Unknown,0,2013-08-21 10:35:00
4:55 AM,53.6,46.4,77,30.32,10.0,Calm,Calm,-,N/A,,Unknown,0,2013-08-21 10:55:00
5:15 AM,53.6,44.6,72,30.32,10.0,Calm,Calm,-,N/A,,Unknown,0,2013-08-21 11:15:00
5:35 AM,53.6,44.6,72,30.32,10.0,Calm,Calm,-,N/A,,Unknown,0,2013-08-21 11:35:00
5:55 AM,51.8,42.8,71,30.33,10.0,Calm,Calm,-,N/A,,Unknown,0,2013-08-21 11:55:00
6:15 AM,53.6,46.4,77,30.33,10.0,Calm,Calm,-,N/A,,Unknown,0,2013-08-21 12:15:00
6:35 AM,51.8,44.6,76,30.33,10.0,Calm,Calm,-,N/A,,Unknown,0,2013-08-21 12:35:00
6:55 AM,53.6,46.4,77,30.34,10.0,North,4.6,-,N/A,,Unknown,10,2013-08-21 12:55:00
7:15 AM,53.6,46.4,77,30.35,10.0,North,3.5,-,N/A,,Unknown,10,2013-08-21 13:15:00
7:35 AM,57.2,48.2,72,30.35,10.0,North,5.8,-,N/A,,Unknown,10,2013-08-21 13:35:00
7:55 AM,60.8,48.2,63,30.35,10.0,North,4.6,-,N/A,,Unknown,360,2013-08-21 13:55:00
8:15 AM,62.6,48.2,59,30.36,10.0,North,3.5,-,N/A,,Unknown,10,2013-08-21 14:15:00
8:35 AM,64.4,50.0,59,30.36,10.0,Calm,Calm,-,N/A,,Unknown,0,2013-08-21 14:35:00
8:55 AM,66.2,50.0,56,30.36,10.0,Calm,Calm,-,N/A,,Unknown,0,2013-08-21 14:55:00
9:15 AM,69.8,51.8,53,30.36,10.0,Calm,Calm,-,N/A,,Unknown,0,2013-08-21 15:15:00
9:35 AM,71.6,51.8,50,30.36,10.0,South,4.6,-,N/A,,Unknown,180,2013-08-21 15:35:00
9:55 AM,73.4,51.8,47,30.36,10.0,Calm,Calm,-,N/A,,Unknown,0,2013-08-21 15:55:00
10:15 AM,73.4,51.8,47,30.35,10.0,Calm,Calm,-,N/A,,Unknown,0,2013-08-21 16:15:00
10:35 AM,75.2,51.8,44,30.35,10.0,SW,4.6,-,N/A,,Unknown,220,2013-08-21 16:35:00
10:55 AM,77.0,51.8,41,30.35,10.0,SW,6.9,-,N/A,,Unknown,220,2013-08-21 16:55:00
11:15 AM,-9999,-9999,N/A,30.33,10.0,WSW,4.6,-,N/A,,Unknown,250,2013-08-21 17:15:00
11:35 AM,-9999,-9999,N/A,30.33,10.0,NW,3.5,-,N/A,,Unknown,310,2013-08-21 17:35:00
11:55 AM,80.6,48.2,32,30.33,10.0,Calm,Calm,-,N/A,,Unknown,0,2013-08-21 17:55:00
12:15 PM,-9999,-9999,N/A,30.31,10.0,SE,5.8,-,N/A,,Unknown,140,2013-08-21 18:15:00
12:35 PM,-9999,-9999,N/A,30.30,10.0,East,3.5,-,N/A,,Unknown,100,2013-08-21 18:35:00
12:55 PM,82.4,48.2,30,30.30,10.0,SW,3.5,-,N/A,,Unknown,230,2013-08-21 18:55:00
1:15 PM,84.2,48.2,29,30.29,10.0,NNW,9.2,-,N/A,,Unknown,340,2013-08-21 19:15:00
1:35 PM,84.2,46.4,27,30.28,10.0,SSW,9.2,-,N/A,,Unknown,200,2013-08-21 19:35:00
1:55 PM,84.2,46.4,27,30.29,10.0,Calm,Calm,-,N/A,,Unknown,0,2013-08-21 19:55:00
2:15 PM,-9999,-9999,N/A,30.28,10.0,East,23.0,28.8,N/A,Thunderstorm,Unknown,100,2013-08-21 20:15:00
2:35 PM,-9999,-9999,N/A,30.28,10.0,ESE,19.6,-,N/A,Thunderstorm,Unknown,110,2013-08-21 20:35:00
2:55 PM,-9999,-9999,N/A,30.28,10.0,ESE,16.1,-,N/A,,Unknown,110,2013-08-21 20:55:00
3:15 PM,78.8,46.4,32,30.28,10.0,ESE,9.2,-,N/A,Thunderstorm,Unknown,120,2013-08-21 21:15:00
3:35 PM,78.8,46.4,32,30.28,10.0,SSE,9.2,-,N/A,Thunderstorm,Unknown,160,2013-08-21 21:35:00
3:55 PM,77.0,46.4,34,30.28,10.0,South,8.1,-,N/A,,Unknown,180,2013-08-21 21:55:00
4:15 PM,78.8,44.6,30,30.28,10.0,South,13.8,-,N/A,,Unknown,170,2013-08-21 22:15:00
4:35 PM,75.2,48.2,38,30.27,10.0,South,18.4,-,N/A,,Unknown,170,2013-08-21 22:35:00
4:55 PM,73.4,48.2,41,30.27,10.0,SSE,17.3,-,N/A,,Unknown,150,2013-08-21 22:55:00
5:15 PM,73.4,48.2,41,30.27,10.0,SSE,13.8,-,N/A,,Unknown,160,2013-08-21 23:15:00
5:35 PM,73.4,48.2,41,30.27,10.0,South,10.4,-,N/A,,Unknown,170,2013-08-21 23:35:00
5:55 PM,73.4,46.4,38,30.27,10.0,South,6.9,-,N/A,,Unknown,180,2013-08-21 23:55:00
6:15 PM,73.4,46.4,38,30.27,10.0,SE,8.1,-,N/A,,Unknown,140,2013-08-22 00:15:00
6:35 PM,73.4,46.4,38,30.27,10.0,SE,8.1,-,N/A,,Unknown,140,2013-08-22 00:35:00
6:55 PM,73.4,46.4,38,30.27,10.0,SSE,9.2,-,N/A,,Unknown,160,2013-08-22 00:55:00
7:15 PM,73.4,46.4,38,30.28,10.0,SE,9.2,-,N/A,,Unknown,140,2013-08-22 01:15:00
7:35 PM,71.6,48.2,43,30.28,10.0,SE,6.9,-,N/A,,Unknown,130,2013-08-22 01:35:00
7:55 PM,71.6,46.4,41,30.28,10.0,ESE,8.1,-,N/A,,Unknown,120,2013-08-22 01:55:00
8:15 PM,71.6,48.2,43,30.29,10.0,SE,6.9,-,N/A,Thunderstorm,Unknown,130,2013-08-22 02:15:00
8:35 PM,71.6,48.2,43,30.30,10.0,ESE,11.5,17.3,N/A,Thunderstorm,Unknown,110,2013-08-22 02:35:00
8:55 PM,71.6,46.4,41,30.31,10.0,SE,6.9,-,N/A,Thunderstorm,Unknown,140,2013-08-22 02:55:00
9:15 PM,68.0,51.8,56,30.33,10.0,South,9.2,-,0.01,Thunderstorm,Thunderstorm,190,2013-08-22 03:15:00
9:35 PM,64.4,53.6,68,30.35,10.0,ESE,4.6,-,0.01,Thunderstorm,Thunderstorm,120,2013-08-22 03:35:00
9:55 PM,64.4,53.6,68,30.36,10.0,ENE,10.4,-,0.01,Thunderstorm,Unknown,60,2013-08-22 03:55:00
10:15 PM,64.4,51.8,64,30.37,10.0,North,9.2,-,N/A,,Unknown,350,2013-08-22 04:15:00
10:35 PM,64.4,51.8,64,30.38,10.0,NE,12.7,16.1,N/A,,Unknown,40,2013-08-22 04:35:00
10:55 PM,64.4,51.8,64,30.38,10.0,ENE,10.4,-,N/A,,Unknown,60,2013-08-22 04:55:00
11:15 PM,62.6,51.8,68,30.39,10.0,NNW,9.2,-,N/A,,Unknown,340,2013-08-22 05:15:00
11:35 PM,62.6,51.8,68,30.39,10.0,North,8.1,-,N/A,,Unknown,10,2013-08-22 05:35:00
11:55 PM,60.8,51.8,72,30.39,10.0,North,6.9,-,N/A,,Unknown,360,2013-08-22 05:55:00